Weather History for Wendover, UT

Change the Weather History Date:

Monday, May 5, 2014

  Actual Average Record
Temperature  
Mean Temperature 60 °F -  
Max Temperature 69 °F 68 °F 87 °F (1934)
Min Temperature 50 °F 46 °F 31 °F (1965)
Degree Days  
Heating Degree Days 5    
Growing Degree Days 10 (Base 50)    
Moisture  
Dew Point 27 °F    
Average Humidity 27    
Maximum Humidity 76    
Minimum Humidity 18    
Precipitation  
Precipitation 0.08 in - - ()
Sea Level Pressure  
Sea Level Pressure 29.81 in    
Wind  
Wind Speed 9 mph (NW)    
Max Wind Speed 28 mph    
Max Gust Speed 34 mph    
Visibility 10 miles    
Events      
Averages and records for this station are not official NWS values.
T = Trace of Precipitation, MM = Missing Value Source: NWS Daily Summary

Daily Weather History Graph

Daily Weather History Graph

Search for Another Location

Airport:

Trip Planner

Search our weather history database for the weather conditions in past years. The results will help you decide how hot, cold, wet, or windy it might be!

Date:

Astronomy

May. 05, 2014 Rise Set
Actual Time 6:29 AM MDT 8:36 PM MDT
Civil Twilight 5:59 AM MDT 9:06 PM MDT
Nautical Twilight 5:22 AM MDT 9:43 PM MDT
Astronomical Twilight 4:42 AM MDT 10:24 PM MDT
Moon 11:53 AM MDT (5/5) 1:23 AM MDT (5/5)
Length of Visible Light 15h 07m
Length of Day
14h 06m
Waxing Crescent, 37% of the Moon is Illuminated
May 5
Waxing Crescent
May 6
First Quarter
May 14
Full
May 21
Last Quarter
May 28
New

Hourly Weather History & Observations

Time (MDT) Temp. Dew Point Humidity Pressure Visibility Wind Dir Wind Speed Gust Speed Precip Events Conditions
12:15 AM 64.4 °F 24.8 °F 22% 29.81 in 10.0 mi SSW 8.1 mph - N/A   Clear
12:35 AM 66.2 °F 24.8 °F 21% 29.81 in 10.0 mi SSW 4.6 mph - N/A   Clear
12:55 AM 64.4 °F 24.8 °F 22% 29.82 in 10.0 mi SSW 9.2 mph - N/A   Clear
1:15 AM 64.4 °F 24.8 °F 22% 29.82 in 10.0 mi SW 8.1 mph - N/A   Clear
1:35 AM 64.4 °F 26.6 °F 24% 29.82 in 10.0 mi West 4.6 mph - N/A   Clear
1:55 AM 64.4 °F 24.8 °F 22% 29.82 in 10.0 mi West 6.9 mph - N/A   Clear
2:15 AM 66.2 °F 24.8 °F 21% 29.82 in 10.0 mi West 16.1 mph 20.7 mph N/A   Clear
2:35 AM 66.2 °F 24.8 °F 21% 29.82 in 10.0 mi WNW 10.4 mph - N/A   Clear
2:55 AM 66.2 °F 23.0 °F 19% 29.82 in 10.0 mi WNW 13.8 mph - N/A   Clear
3:15 AM 64.4 °F 24.8 °F 22% 29.82 in 10.0 mi NW 11.5 mph - N/A   Clear
3:35 AM 64.4 °F 21.2 °F 19% 29.82 in 10.0 mi NW 10.4 mph - N/A   Clear
3:55 AM 64.4 °F 19.4 °F 18% 29.82 in 10.0 mi North 6.9 mph - N/A   Clear
4:15 AM 64.4 °F 21.2 °F 19% 29.82 in 10.0 mi North 6.9 mph - N/A   Clear
4:35 AM 64.4 °F 19.4 °F 18% 29.83 in 10.0 mi NNW 11.5 mph 18.4 mph N/A   Clear
4:55 AM 62.6 °F 21.2 °F 20% 29.83 in 10.0 mi NW 13.8 mph 21.9 mph N/A   Clear
5:15 AM 62.6 °F 21.2 °F 20% 29.83 in 10.0 mi NW 5.8 mph 18.4 mph N/A   Clear
5:35 AM 62.6 °F 21.2 °F 20% 29.83 in 10.0 mi Calm Calm - N/A   Clear
5:55 AM 62.6 °F 21.2 °F 20% 29.83 in 10.0 mi WNW 6.9 mph - N/A   Clear
6:15 AM 62.6 °F 21.2 °F 20% 29.83 in 10.0 mi WNW 11.5 mph - N/A   Clear
6:35 AM 60.8 °F 21.2 °F 22% 29.84 in 10.0 mi NNW 11.5 mph 25.3 mph N/A   Clear
6:55 AM 60.8 °F 21.2 °F 22% 29.86 in 10.0 mi South 3.5 mph - N/A   Clear
7:15 AM 60.8 °F 23.0 °F 23% 29.85 in 10.0 mi NW 12.7 mph - N/A   Clear
7:35 AM 60.8 °F 23.0 °F 23% 29.86 in 10.0 mi WNW 9.2 mph - N/A   Clear
7:55 AM 60.8 °F 23.0 °F 23% 29.86 in 10.0 mi NNW 6.9 mph - N/A   Clear
8:15 AM 60.8 °F 23.0 °F 23% 29.86 in 10.0 mi NW 10.4 mph - N/A   Clear
8:35 AM 62.6 °F 23.0 °F 22% 29.86 in 10.0 mi North 4.6 mph - N/A   Clear
8:55 AM 62.6 °F 23.0 °F 22% 29.86 in 10.0 mi North 6.9 mph - N/A   Clear
9:15 AM 62.6 °F 23.0 °F 22% 29.86 in 10.0 mi NNW 6.9 mph - N/A   Clear
9:35 AM 62.6 °F 23.0 °F 22% 29.86 in 10.0 mi NNW 6.9 mph - N/A   Clear
9:55 AM 64.4 °F 23.0 °F 21% 29.86 in 10.0 mi NNW 6.9 mph - N/A   Clear
10:15 AM 62.6 °F 26.6 °F 26% 29.86 in 10.0 mi SSE 11.5 mph - N/A   Clear
10:35 AM 64.4 °F 24.8 °F 22% 29.86 in 10.0 mi East 10.4 mph - N/A   Clear
10:55 AM 62.6 °F 28.4 °F 27% 29.86 in 10.0 mi SE 11.5 mph - N/A   Clear
11:15 AM 62.6 °F 26.6 °F 26% 29.86 in 10.0 mi SE 10.4 mph - N/A   Clear
11:35 AM 64.4 °F 26.6 °F 24% 29.86 in 10.0 mi SE 10.4 mph - N/A   Clear
12:15 PM 64.4 °F 26.6 °F 24% 29.85 in 10.0 mi ESE 5.8 mph - N/A   Clear
12:35 PM 64.4 °F 26.6 °F 24% 29.84 in 10.0 mi SE 6.9 mph - N/A   Clear
12:55 PM 66.2 °F 26.6 °F 23% 29.84 in 10.0 mi SE 6.9 mph - N/A   Clear
1:15 PM 66.2 °F 26.6 °F 23% 29.83 in 10.0 mi ESE 6.9 mph - N/A   Clear
1:35 PM 66.2 °F 24.8 °F 21% 29.82 in 10.0 mi ESE 5.8 mph - N/A   Clear
1:55 PM 66.2 °F 24.8 °F 21% 29.81 in 10.0 mi ESE 5.8 mph - N/A   Clear
2:15 PM 66.2 °F 24.8 °F 21% 29.80 in 10.0 mi ESE 4.6 mph - N/A   Clear
2:35 PM 69.8 °F 24.8 °F 18% 29.79 in 10.0 mi East 5.8 mph - N/A   Clear
2:55 PM 69.8 °F 24.8 °F 18% 29.78 in 10.0 mi ESE 5.8 mph - N/A   Clear
3:15 PM 69.8 °F 24.8 °F 18% 29.78 in 10.0 mi East 8.1 mph - N/A   Clear
3:35 PM 69.8 °F 24.8 °F 18% 29.78 in 10.0 mi East 6.9 mph - N/A   Clear
3:55 PM 69.8 °F 24.8 °F 18% 29.76 in 10.0 mi ENE 8.1 mph - N/A   Clear
4:15 PM 69.8 °F 26.6 °F 20% 29.75 in 10.0 mi West 16.1 mph 20.7 mph N/A   Clear
4:35 PM 68.0 °F 28.4 °F 23% 29.76 in 10.0 mi West 12.7 mph 34.5 mph N/A   Scattered Clouds
4:55 PM 66.2 °F 28.4 °F 24% 29.77 in 10.0 mi West 24.2 mph 29.9 mph N/A   Overcast
5:15 PM 64.4 °F 30.2 °F 28% 29.79 in 10.0 mi West 13.8 mph 24.2 mph N/A   Mostly Cloudy
5:35 PM 64.4 °F 32.0 °F 30% 29.79 in 10.0 mi West 27.6 mph 33.4 mph N/A   Overcast
5:55 PM 60.8 °F 33.8 °F 36% 29.77 in 10.0 mi NW 21.9 mph 28.8 mph N/A   Mostly Cloudy
6:15 PM 60.8 °F 33.8 °F 36% 29.77 in 10.0 mi NW 19.6 mph - N/A   Mostly Cloudy
6:35 PM 60.8 °F 33.8 °F 36% 29.76 in 10.0 mi WNW 12.7 mph - N/A   Mostly Cloudy
6:55 PM 62.6 °F 33.8 °F 34% 29.74 in 10.0 mi WNW 13.8 mph - N/A   Mostly Cloudy
7:15 PM 62.6 °F 33.8 °F 34% 29.75 in 10.0 mi NW 15.0 mph - N/A   Mostly Cloudy
7:35 PM 62.6 °F 32.0 °F 32% 29.76 in 10.0 mi West 17.3 mph 21.9 mph N/A   Overcast
7:55 PM 60.8 °F 33.8 °F 36% 29.76 in 10.0 mi WNW 15.0 mph - N/A   Overcast
8:15 PM 60.8 °F 33.8 °F 36% 29.76 in 10.0 mi WNW 15.0 mph - N/A   Overcast
8:35 PM 59.0 °F 33.8 °F 39% 29.74 in 10.0 mi NW 9.2 mph - N/A   Mostly Cloudy
8:55 PM 60.8 °F 32.0 °F 34% 29.74 in 10.0 mi NW 11.5 mph - N/A   Clear
9:15 PM 60.8 °F 30.2 °F 31% 29.73 in 10.0 mi North 5.8 mph - N/A   Mostly Cloudy
9:35 PM 60.8 °F 30.2 °F 31% 29.72 in 10.0 mi NNE 5.8 mph - N/A   Overcast
9:55 PM 59.0 °F 32.0 °F 36% 29.72 in 10.0 mi NE 12.7 mph - N/A   Overcast
10:15 PM 59.0 °F 32.0 °F 36% 29.73 in 10.0 mi NE 20.7 mph 26.5 mph N/A   Overcast
10:35 PM 55.4 °F 37.4 °F 51% 29.75 in 10.0 mi NE 19.6 mph - N/A   Overcast
10:55 PM 53.6 °F 39.2 °F 58% 29.77 in 10.0 mi ENE 19.6 mph - N/A   Overcast
11:15 PM 51.8 °F 41.0 °F 67% 29.77 in 9.0 mi ESE 4.6 mph - 0.02 in   Overcast
11:35 PM 51.8 °F 41.0 °F 67% 29.77 in 10.0 mi WNW 4.6 mph - 0.06 in   Overcast
11:55 PM 50.0 °F 42.8 °F 76% 29.76 in 10.0 mi West 9.2 mph - 0.08 in   Overcast